[[{"header":{"parameterUnit":"m.s-1","parameterCategory":2,"la1":30.2991,"la2":30.254,"lo1":-89.0895,"lo2":-89.0444,"dy":0.0017,"dx":0.0017,"nx":28,"ny":28,"refTime":"2026-02-10T09:00:00:Z","depth":"0","parameterNumber":2,"parameterNumberName":"U-component_of_CURRENTS"},"data":[0,0,0,0,0,0,0,0,0,0,0,0,0,0,0,0,0,0,0,0,0,0,0,0,0,0,0,0,0,0,0,0,0,0,0,0,0,0,0,0,0,0,0,0,0,0,0,0,0,0,0,0,0,0,0,0,0,0,0.2009,0.2007,0,0.183,0.1827,0.1825,0.1678,0.1677,0.1676,0.1675,0.1676,0.1677,0.1678,0,0,0,0,0,0,0,0,0,0,0,0,0,0.2264,0.226,0.2009,0.2007,0.2005,0.183,0.1827,0.1824,0.1679,0.1677,0.1676,0.1675,0.1675,0.1676,0.1678,0,0,0,0,0,0,0,0,0,0,0,0,0,0.2121,0.2258,0.2009,0.1916,0.1906,0.1831,0.1827,0.1823,0.1679,0.1677,0.1676,0.1674,0.1675,0.1676,0.1678,0.1717,0,0,0.1682,0.1683,0,0,0,0,0,0,0,0,0.2129,0.2111,0.1931,0.1922,0.1911,0.178,0.1917,0.1799,0.1679,0.1759,0.1675,0.1674,0.1732,0.1729,0.1688,0.1717,0.1717,0.1682,0.1683,0.1684,0.1684,0,0,0,0,0,0,0,0.2139,0.2118,0.1932,0.193,0.1917,0.1897,0.1874,0.1893,0.1755,0.1752,0.1742,0.1732,0.1727,0.1686,0.1687,0.1717,0.1682,0.1684,0.1684,0.1685,0.1794,0.1796,0,0,0,0,0,0,0.2171,0.2127,0.1938,0.1927,0.2025,0.1894,0.1868,0.1819,0.1751,0.1739,0.1733,0.1726,0.1685,0.1686,0.1687,0.1776,0.1684,0.1685,0.1686,0.1792,0.1795,0.1797,0,0,0,0,0,0,0.2177,0.2154,0.1945,0.203,0.2003,0.1891,0.1838,0.1816,0.1777,0.1736,0.1726,0.1717,0.1684,0.1685,0.1705,0.1774,0.1686,0.1687,0.179,0.1793,0.1796,0.1927,0,0,0,0,0,0,0.2184,0.2156,0.2146,0.2031,0.1999,0.1929,0.1839,0.1814,0.1776,0.1764,0.172,0.1717,0.1682,0.1703,0.1707,0.1774,0.1688,0.1787,0.1791,0.1795,0.192,0.1934,0.1946,0,0,0,0,0,0.2193,0.2197,0.2145,0.2124,0.1982,0.1931,0.1914,0.1827,0.1777,0.1781,0.1736,0.1718,0.173,0.1706,0.1709,0.1779,0.1785,0.179,0.1794,0.1914,0.1931,0.1946,0,0,0,0,0,0,0.2346,0.218,0.2121,0.2084,0.2023,0.1909,0.1915,0.1844,0.1802,0.1805,0.174,0.1736,0.1779,0.1761,0.1735,0.182,0.1759,0.1764,0.1849,0.1865,0.1877,0.1919,0.1689,0,0,0,0,0,0.2365,0.2306,0.2177,0.2168,0.2132,0.2023,0.1995,0.1938,0.1882,0.1857,0.1812,0.1792,0.1801,0.1815,0.1811,0.1867,0.1879,0.1914,0.1927,0.1939,0.1974,0.2042,0.2066,0.1812,0.1812,0.1812,0,0,0.2447,0.2339,0.2321,0.2195,0.2136,0.2105,0.2001,0.1983,0.1976,0.1878,0.1869,0.1839,0.1822,0.1866,0.1888,0.1863,0.2016,0.1945,0.1955,0.1984,0.205,0.2075,0.2097,0.1815,0.1814,0.1814,0,0,0.2553,0.2462,0.2428,0.2377,0.2285,0.221,0.2209,0.2095,0.2063,0.2051,0.1986,0.1998,0.198,0.1988,0.1992,0.2086,0.2076,0.2082,0.2197,0.2263,0.2285,0.2305,0.2351,0.2374,0.2097,0.2098,0.2098,0,0.2652,0.2568,0.2438,0.2399,0.238,0.226,0.2261,0.222,0.2134,0.2145,0.2077,0.2071,0.2049,0.2133,0.2146,0.2124,0.2144,0.2138,0.2283,0.2303,0.2321,0.2364,0.2387,0.2105,0.2104,0.2103,0.2102,0,0.2708,0.266,0.2663,0.2539,0.2512,0.2516,0.2426,0.2414,0.2349,0.2304,0.2346,0.2292,0.2294,0.2291,0.2243,0.2368,0.2334,0.2286,0.2249,0.2355,0.2392,0.2414,0.2114,0.2112,0.211,0.2108,0,0,0.2853,0.2718,0.272,0.2681,0.2587,0.2564,0.259,0.2567,0.2582,0.2537,0.2574,0.2581,0.2538,0.2541,0.2492,0.2544,0.2668,0.2475,0.2475,0.2532,0.2811,0.2663,0.2672,0.2643,0.2648,0.2651,0.2785,0,0.2928,0.289,0.2806,0.2815,0.2781,0.2718,0.2736,0.2726,0.2691,0.2698,0.2705,0.2704,0.264,0.2626,0.2686,0.2654,0.2733,0.2636,0.269,0.2692,0.2558,0.2695,0.2468,0.2557,0.2806,0.281,0.2812,0,0.2965,0.2928,0.2942,0.2889,0.2876,0.288,0.2884,0.2887,0.2907,0.289,0.293,0.2883,0.2959,0.2858,0.2957,0.2894,0.2888,0.2868,0.2871,0.2709,0.2587,0.2491,0.2588,0.2469,0.2846,0.2843,0.2841,0,0.3045,0.3009,0.3021,0.3012,0.2951,0.2977,0.2957,0.2961,0.2965,0.3008,0.3007,0.3084,0.3078,0.3131,0.3071,0.303,0.3153,0.3088,0.2975,0.2963,0.277,0.2733,0.2769,0.3207,0.3206,0.3206,0.3206,0,0.3096,0.3108,0.306,0.3062,0.3089,0.304,0.3072,0.3069,0.3082,0.3104,0.3104,0.3124,0.314,0.3174,0.3161,0.3133,0.3242,0.3041,0.3008,0.2804,0.277,0.2652,0.2641,0.3211,0.321,0.3209,0.3208,0,0.315,0.3126,0.3121,0.3103,0.3102,0.3118,0.3097,0.3117,0.3124,0.3155,0.3168,0.3182,0.3214,0.3219,0.327,0.3202,0.3095,0.3175,0.2918,0.2851,0.2593,0.2596,0.256,0.251,0.3095,0.3093,0.3091,0,0.3161,0.3164,0.315,0.3147,0.3135,0.3146,0.3148,0.3142,0.315,0.3179,0.3199,0.3226,0.3218,0.3229,0.3116,0.3094,0.3025,0.2863,0.2746,0.2591,0.2574,0.2494,0.245,0.2553,0.2547,0.2542,0.2537,0,0.3181,0.318,0.3176,0.3176,0.3176,0.3171,0.3172,0.3182,0.3183,0.319,0.3205,0.3203,0.3141,0.2962,0.2872,0.2826,0.2674,0.2752,0.2676,0.2243,0.208,0.2006,0.2451,0.2491,0.2496,0.2499,0.2501,0.2503,0.3191,0.3196,0.3185,0.3187,0.3188,0.318,0.3158,0.3153,0.3144,0.3089,0.3159,0.3042,0.2813,0.262,0.2569,0.2235,0.2364,0.2089,0.2139,0.2097,0.1945,0.2277,0.221,0.2212,0.2215,0.2217,0.2219,0,0.3176,0.3184,0.3189,0.3173,0.3166,0.3167,0.3154,0.3098,0.3051,0.2964,0.2925,0.2586,0.2328,0.2123,0.1746,0.1613,0.1561,0.1565,0.1419,0.1439,0.179,0.1656,0.1359,0.1359,0.1359,0.1359,0.1359,0.136,0.316,0.3157,0.3164,0.3144,0.3135,0.3077,0.3051,0.2955,0.2853,0.2548,0.2279,0.2145,0.1829,0.1466,0.1172,0.1154,0.1108,0.0994,0.1138,0.1365,0.1417,0.1467,0.1335,0.0976,0.0976,0.0629,0.0627,0.0625]},{"header":{"parameterUnit":"m.s-1","parameterCategory":2,"la1":30.2991,"la2":30.254,"lo1":-89.0895,"lo2":-89.0444,"dy":0.0017,"dx":0.0017,"nx":28,"ny":28,"refTime":"2026-02-10T09:00:00:Z","depth":"0","parameterNumber":3,"parameterNumberName":"V-component_of_CURRENTS"},"data":[0,0,0,0,0,0,0,0,0,0,0,0,0,0,0,0,0,0,0,0,0,0,0,0,0,0,0,0,0,0,0,0,0,0,0,0,0,0,0,0,0,0,0,0,0,0,0,0,0,0,0,0,0,0,0,0,0,0,0.0062,0.0062,0,0.0107,0.0107,0.0108,0.0113,0.0112,0.0112,0.0112,0.0065,0.0064,0.0063,0,0,0,0,0,0,0,0,0,0,0,0,0,-0.0044,-0.0043,0.0062,0.0062,0.0063,0.0107,0.0107,0.0108,0.0113,0.0112,0.0112,0.0112,0.0066,0.0065,0.0063,0,0,0,0,0,0,0,0,0,0,0,0,0,-0.0,-0.0042,0.0062,0.0072,0.0074,0.0107,0.0107,0.0108,0.0113,0.0112,0.0112,0.0111,0.0066,0.0065,0.0063,0.0063,0,0,0.0059,0.0058,0,0,0,0,0,0,0,0,-0.0003,0.0003,0.007,0.0072,0.0073,0.0105,0.0053,0.0089,0.0113,0.0096,0.0112,0.0111,0.0072,0.007,0.0078,0.0061,0.0059,0.0059,0.0058,0.0057,0.0057,0,0,0,0,0,0,0,-0.0006,0.0001,0.0078,0.0071,0.0073,0.0066,0.0072,0.006,0.0083,0.0097,0.0098,0.0106,0.0072,0.0079,0.0077,0.0058,0.0059,0.0057,0.0057,0.0056,0.0046,0.0046,0,0,0,0,0,0,-0.0006,-0.0001,0.0076,0.0079,0.0035,0.0069,0.0075,0.0094,0.0085,0.0084,0.0107,0.0106,0.0082,0.0078,0.0075,0.0075,0.0057,0.0056,0.0055,0.0045,0.0046,0.0046,0,0,0,0,0,0,-0.0008,0.0001,0.0075,0.004,0.005,0.0072,0.0092,0.0095,0.0104,0.0093,0.009,0.0113,0.0082,0.0077,0.0071,0.0073,0.0055,0.0054,0.0044,0.0045,0.0046,0.0074,0,0,0,0,0,0,-0.0011,0.0,0.0011,0.0041,0.0052,0.0095,0.0093,0.0096,0.0111,0.0111,0.0098,0.0093,0.0081,0.0073,0.0069,0.0071,0.0053,0.0044,0.0045,0.0046,0.0072,0.0076,0.0078,0,0,0,0,0,-0.0015,-0.0003,0.0012,0.0021,0.0067,0.0096,0.01,0.0112,0.0112,0.0118,0.0112,0.0094,0.0077,0.0072,0.0068,0.0069,0.0043,0.0044,0.0046,0.0071,0.0075,0.0078,0,0,0,0,0,0,-0.0061,0.0001,0.0016,0.0042,0.007,0.0097,0.0101,0.0115,0.0119,0.0113,0.0101,0.0096,0.0093,0.0079,0.0075,0.0071,0.0057,0.0057,0.0078,0.0081,0.0084,0.0076,0.0052,0,0,0,0,0,-0.006,-0.0028,0.002,0.0034,0.0052,0.0079,0.0091,0.0104,0.0114,0.0116,0.0112,0.0103,0.0096,0.0087,0.0081,0.0075,0.0079,0.0074,0.0077,0.008,0.0071,0.009,0.0094,0.0051,0.0051,0.0051,0,0,-0.0087,-0.004,-0.0032,0.0028,0.0047,0.0074,0.0084,0.0103,0.0119,0.0107,0.0117,0.0113,0.0099,0.0098,0.0094,0.0084,0.0099,0.0081,0.0084,0.0073,0.0092,0.0096,0.01,0.0052,0.0051,0.0051,0,0,-0.011,-0.0071,-0.0047,-0.0013,0.0036,0.0061,0.007,0.0108,0.0117,0.0134,0.0128,0.0128,0.0122,0.0114,0.0107,0.0122,0.0118,0.0121,0.0124,0.0143,0.0147,0.015,0.018,0.0186,0.0119,0.0119,0.0119,0,-0.0147,-0.0102,-0.0044,-0.0005,0.0011,0.0058,0.0072,0.0099,0.0129,0.0128,0.0137,0.0135,0.0128,0.0118,0.0129,0.0127,0.0144,0.011,0.0147,0.015,0.0153,0.0183,0.0189,0.012,0.012,0.012,0.012,0,-0.0143,-0.011,-0.0099,-0.0027,0.0004,0.0017,0.0073,0.0096,0.0116,0.0135,0.014,0.0145,0.0137,0.0144,0.0141,0.0152,0.0161,0.0154,0.0137,0.0159,0.019,0.0195,0.0123,0.0122,0.0122,0.0121,0,0,-0.0239,-0.012,-0.0124,-0.0093,-0.0012,0.001,0.0047,0.0079,0.0091,0.0125,0.0129,0.0137,0.0142,0.0135,0.0137,0.0157,0.0205,0.0166,0.0166,0.0195,0.0262,0.0274,0.0281,0.0208,0.0209,0.0209,0.0283,0,-0.027,-0.0211,-0.0142,-0.0112,-0.0084,-0.0021,0.001,0.0052,0.0084,0.0108,0.0121,0.013,0.0138,0.0139,0.0161,0.0193,0.0217,0.0186,0.0236,0.0238,0.0244,0.0286,0.0296,0.0363,0.0288,0.0289,0.029,0,-0.03,-0.025,-0.0221,-0.0142,-0.0128,-0.01,-0.0053,-0.0017,0.0037,0.0061,0.008,0.0103,0.0133,0.0142,0.0206,0.0189,0.0224,0.0253,0.0257,0.0256,0.0258,0.0325,0.0376,0.0333,0.0298,0.0298,0.0297,0,-0.0394,-0.0318,-0.0299,-0.0272,-0.0169,-0.0156,-0.0113,-0.0049,-0.0016,0.003,0.0059,0.0092,0.0124,0.0167,0.0249,0.0226,0.0338,0.0307,0.0348,0.0349,0.0359,0.0361,0.0369,0.0347,0.0346,0.0346,0.0346,0,-0.0454,-0.0445,-0.0341,-0.0327,-0.0302,-0.0219,-0.0192,-0.0141,-0.0074,-0.0022,0.0023,0.008,0.0136,0.0215,0.0261,0.0344,0.0349,0.0357,0.037,0.0372,0.0373,0.0335,0.0303,0.0349,0.0348,0.0348,0.0347,0,-0.0552,-0.049,-0.0451,-0.036,-0.0334,-0.0316,-0.0218,-0.0184,-0.0125,-0.0051,-0.0031,0.0079,0.0205,0.0278,0.0376,0.0366,0.0421,0.046,0.0469,0.0481,0.0431,0.04,0.0422,0.0397,0.0486,0.0487,0.0488,0,-0.0592,-0.0579,-0.0483,-0.0441,-0.0398,-0.0351,-0.0298,-0.022,-0.0164,-0.003,0.0014,0.0146,0.0307,0.0453,0.0479,0.0564,0.0509,0.0547,0.0484,0.0438,0.0414,0.0386,0.036,0.0522,0.0522,0.0523,0.0524,0,-0.0646,-0.0612,-0.0559,-0.0477,-0.0419,-0.0353,-0.0277,-0.0239,-0.0122,-0.0029,0.0141,0.0283,0.0443,0.0579,0.0651,0.0657,0.0497,0.0559,0.0512,0.0441,0.0413,0.0392,0.0468,0.053,0.0529,0.0529,0.0528,0.0528,-0.067,-0.0641,-0.055,-0.048,-0.0411,-0.0324,-0.026,-0.0142,-0.0017,0.0209,0.0268,0.0558,0.0638,0.0777,0.0733,0.0599,0.0586,0.0538,0.0509,0.0488,0.0444,0.0535,0.0604,0.0604,0.0604,0.0604,0.0604,0,-0.0641,-0.0595,-0.0541,-0.0426,-0.035,-0.0318,-0.0202,-0.0091,0.0105,0.0367,0.0577,0.0827,0.0894,0.0864,0.0705,0.0581,0.0495,0.0498,0.0451,0.0427,0.0519,0.0497,0.0546,0.0546,0.0547,0.0547,0.0547,0.0547,-0.0604,-0.0532,-0.0503,-0.0373,-0.0304,-0.0173,-0.0098,0.0089,0.0299,0.0691,0.0954,0.1135,0.1115,0.0809,0.0598,0.0523,0.0412,0.0398,0.0345,0.0391,0.0392,0.0392,0.0364,0.0385,0.0385,0.0258,0.0257,0.0256]}],[{"header":{"parameterUnit":"m.s-1","parameterCategory":2,"la1":30.2991,"la2":30.254,"lo1":-89.0895,"lo2":-89.0444,"dy":0.0017,"dx":0.0017,"nx":28,"ny":28,"refTime":"2026-02-10T09:00:00:Z","depth":"2","parameterNumber":2,"parameterNumberName":"U-component_of_CURRENTS"},"data":[0,0,0,0,0,0,0,0,0,0,0,0,0,0,0,0,0,0,0,0,0,0,0,0,0,0,0,0,0,0,0,0,0,0,0,0,0,0,0,0,0,0,0,0,0,0,0,0,0,0,0,0,0,0,0,0,0,0,0.1182,0.1182,0,0.1159,0.1159,0.1159,0.1147,0.1147,0.1147,0.1147,0.1147,0.1147,0.1147,0,0,0,0,0,0,0,0,0,0,0,0,0,0.1206,0.1206,0.1182,0.1182,0.1181,0.1159,0.1159,0.1159,0.1147,0.1147,0.1147,0.1147,0.1147,0.1147,0.1147,0,0,0,0,0,0,0,0,0,0,0,0,0,0.1192,0.1206,0.1182,0.1172,0.1171,0.116,0.1159,0.1159,0.1147,0.1147,0.1147,0.1146,0.1147,0.1147,0.1147,0.1153,0,0,0.1148,0.1148,0,0,0,0,0,0,0,0,0.1193,0.1191,0.1174,0.1172,0.1171,0.1155,0.1168,0.1158,0.1147,0.1157,0.1147,0.1146,0.1151,0.1151,0.1149,0.1153,0.1153,0.1148,0.1148,0.1148,0.1148,0,0,0,0,0,0,0,0.1194,0.1192,0.1174,0.1173,0.1172,0.1165,0.1163,0.1166,0.1157,0.1156,0.1155,0.1151,0.1151,0.1148,0.1149,0.1153,0.1148,0.1148,0.1148,0.1148,0.1214,0.1215,0,0,0,0,0,0,0.1195,0.1193,0.1175,0.1174,0.118,0.1165,0.1163,0.1161,0.1156,0.1155,0.1151,0.115,0.1148,0.1148,0.1149,0.1199,0.1148,0.1148,0.1149,0.1212,0.1214,0.1216,0,0,0,0,0,0,0.1196,0.1194,0.1176,0.1182,0.1179,0.1165,0.1163,0.1161,0.1167,0.1152,0.1151,0.116,0.1148,0.1148,0.1168,0.1197,0.1149,0.1149,0.121,0.1213,0.1215,0.1272,0,0,0,0,0,0,0.1197,0.1194,0.1198,0.1182,0.1179,0.1181,0.1163,0.116,0.1163,0.1163,0.116,0.1159,0.1148,0.1168,0.1168,0.1197,0.1149,0.1208,0.1211,0.1214,0.1268,0.1276,0.1282,0,0,0,0,0,0.1198,0.1201,0.1199,0.1197,0.1183,0.1182,0.1181,0.117,0.1164,0.1174,0.1175,0.1159,0.1188,0.1169,0.1169,0.1198,0.1207,0.121,0.1214,0.1264,0.1274,0.1282,0,0,0,0,0,0,0.1196,0.12,0.1197,0.1196,0.1196,0.118,0.1189,0.1179,0.1186,0.1191,0.1175,0.1175,0.1205,0.1196,0.1177,0.1228,0.1196,0.12,0.1235,0.1244,0.1251,0.126,0.1149,0,0,0,0,0,0.1202,0.1226,0.1209,0.1217,0.1217,0.1207,0.1206,0.12,0.1199,0.1202,0.1202,0.1207,0.1218,0.1226,0.1233,0.1259,0.127,0.128,0.1287,0.1293,0.1302,0.1351,0.1364,0.1228,0.1228,0.1228,0,0,0.1209,0.1213,0.1226,0.1223,0.1225,0.1227,0.1207,0.1215,0.1221,0.1202,0.1225,0.1232,0.1231,0.1262,0.1274,0.1259,0.134,0.1298,0.1303,0.1309,0.1356,0.137,0.1381,0.123,0.123,0.1229,0,0,0.1223,0.1235,0.125,0.1255,0.1258,0.1255,0.126,0.1255,0.1259,0.1277,0.1271,0.13,0.1308,0.1322,0.1326,0.138,0.1376,0.1383,0.1428,0.1476,0.1487,0.1498,0.1534,0.1547,0.1388,0.1388,0.1388,0,0.1231,0.1237,0.1253,0.1259,0.1265,0.127,0.1272,0.1282,0.1286,0.1299,0.1295,0.1337,0.1339,0.1379,0.1402,0.1397,0.142,0.1391,0.1486,0.1496,0.1505,0.154,0.1554,0.1391,0.1391,0.139,0.139,0,0.1239,0.1252,0.1265,0.1284,0.1292,0.1306,0.1311,0.1335,0.1346,0.1351,0.1397,0.1411,0.1435,0.1449,0.1442,0.1513,0.1505,0.1488,0.1462,0.1523,0.1555,0.1568,0.1396,0.1394,0.1393,0.1393,0,0,0.1238,0.1267,0.1274,0.1281,0.1307,0.1311,0.1346,0.1368,0.1394,0.1423,0.1458,0.1499,0.1513,0.1521,0.1526,0.1577,0.1667,0.1569,0.157,0.1602,0.1775,0.1656,0.1659,0.1669,0.1672,0.1674,0.1771,0,0.124,0.1254,0.1273,0.1297,0.1296,0.1331,0.1362,0.1391,0.1421,0.1465,0.1503,0.154,0.1536,0.156,0.1611,0.1652,0.1705,0.1642,0.1713,0.1715,0.16,0.1671,0.1509,0.1573,0.1784,0.1786,0.1788,0,0.1234,0.1239,0.1257,0.1292,0.1298,0.1325,0.138,0.141,0.1478,0.15,0.1554,0.158,0.166,0.1645,0.1758,0.1721,0.1757,0.179,0.1794,0.1671,0.162,0.1546,0.1589,0.181,0.1808,0.1806,0.1805,0,0.1204,0.1234,0.1253,0.1265,0.1301,0.133,0.1365,0.1426,0.146,0.1535,0.158,0.1648,0.1707,0.1766,0.1821,0.1807,0.1938,0.1918,0.1847,0.1839,0.1708,0.1682,0.2005,0.2005,0.2005,0.2004,0.2004,0,0.1196,0.1204,0.1246,0.1248,0.1286,0.1316,0.1384,0.1417,0.1485,0.153,0.1603,0.1659,0.1748,0.1819,0.1852,0.1882,0.196,0.1871,0.1862,0.1721,0.1697,0.1899,0.1886,0.2008,0.2007,0.2006,0.2006,0,0.1165,0.1194,0.1207,0.1249,0.1274,0.1303,0.1397,0.1431,0.1506,0.157,0.16,0.1703,0.1786,0.1848,0.1948,0.192,0.1957,0.1945,0.1762,0.1727,0.1824,0.1813,0.1893,0.189,0.1887,0.1885,0.1883,0,0.1154,0.116,0.1211,0.1226,0.1252,0.1316,0.1357,0.1432,0.1464,0.1586,0.1602,0.1716,0.1757,0.1853,0.1831,0.1849,0.1916,0.1699,0.163,0.1833,0.1817,0.181,0.1802,0.1497,0.1492,0.1488,0.1485,0,0.1125,0.1157,0.1169,0.1204,0.1244,0.1292,0.1351,0.1392,0.1472,0.1516,0.1573,0.1621,0.1694,0.1633,0.1641,0.1628,0.1673,0.1613,0.1907,0.1523,0.146,0.1443,0.1449,0.1449,0.1452,0.1455,0.1457,0.1458,0.1116,0.1127,0.116,0.1198,0.1219,0.1249,0.127,0.1323,0.1368,0.14,0.1478,0.1477,0.1491,0.1418,0.137,0.1332,0.1463,0.1393,0.1406,0.1424,0.1333,0.1266,0.1203,0.1205,0.1206,0.1208,0.1209,0,0.1117,0.1144,0.1151,0.1167,0.115,0.1211,0.1234,0.1231,0.1245,0.1273,0.128,0.1151,0.1112,0.1139,0.1021,0.1,0.1007,0.0953,0.096,0.0996,0.1027,0.0917,0.0676,0.0675,0.0673,0.0672,0,0,0.1121,0.1123,0.1125,0.1103,0.1121,0.1089,0.1098,0.1069,0.1053,0.1029,0.0985,0.1059,0.1094,0.0874,0.0834,0.0739,0.0863,0.0697,0.1125,0.117,0.12,0.1279,0.1148,0,0,0,0,0]},{"header":{"parameterUnit":"m.s-1","parameterCategory":2,"la1":30.2991,"la2":30.254,"lo1":-89.0895,"lo2":-89.0444,"dy":0.0017,"dx":0.0017,"nx":28,"ny":28,"refTime":"2026-02-10T09:00:00:Z","depth":"2","parameterNumber":3,"parameterNumberName":"V-component_of_CURRENTS"},"data":[0,0,0,0,0,0,0,0,0,0,0,0,0,0,0,0,0,0,0,0,0,0,0,0,0,0,0,0,0,0,0,0,0,0,0,0,0,0,0,0,0,0,0,0,0,0,0,0,0,0,0,0,0,0,0,0,0,0,0.0187,0.0187,0,0.0191,0.0191,0.0191,0.0187,0.0187,0.0187,0.0187,0.0165,0.0165,0.0164,0,0,0,0,0,0,0,0,0,0,0,0,0,0.0149,0.015,0.0187,0.0187,0.0187,0.0191,0.0191,0.0191,0.0187,0.0187,0.0187,0.0187,0.0166,0.0165,0.0164,0,0,0,0,0,0,0,0,0,0,0,0,0,0.0159,0.015,0.0187,0.0187,0.0187,0.0191,0.0191,0.0191,0.0187,0.0187,0.0187,0.0187,0.0166,0.0165,0.0164,0.0161,0,0,0.0162,0.0162,0,0,0,0,0,0,0,0,0.0159,0.0161,0.0187,0.0187,0.0187,0.0189,0.017,0.018,0.0187,0.0186,0.0187,0.0187,0.0172,0.0171,0.017,0.016,0.0159,0.0162,0.0161,0.0161,0.0161,0,0,0,0,0,0,0,0.0158,0.016,0.0187,0.0187,0.0187,0.0177,0.0179,0.0171,0.0178,0.0186,0.0186,0.0188,0.0172,0.0171,0.017,0.0159,0.0162,0.0161,0.0161,0.016,0.0149,0.0149,0,0,0,0,0,0,0.0162,0.016,0.0187,0.0188,0.0174,0.0178,0.018,0.0188,0.0178,0.0177,0.0188,0.0188,0.0172,0.0171,0.0169,0.0173,0.0161,0.016,0.016,0.0149,0.0149,0.0149,0,0,0,0,0,0,0.0161,0.0164,0.0187,0.0174,0.0177,0.0179,0.0188,0.0188,0.0188,0.0181,0.0179,0.0189,0.0172,0.017,0.0165,0.0172,0.016,0.0159,0.0149,0.0149,0.0149,0.0176,0,0,0,0,0,0,0.016,0.0164,0.0166,0.0175,0.0178,0.0192,0.0188,0.0188,0.019,0.019,0.0181,0.0179,0.0172,0.0166,0.0164,0.0171,0.0159,0.0149,0.0149,0.0149,0.0175,0.0178,0.0179,0,0,0,0,0,0.0159,0.0165,0.0167,0.017,0.0183,0.0193,0.0193,0.0193,0.019,0.0192,0.0186,0.0179,0.0167,0.0166,0.0164,0.017,0.0148,0.0149,0.0149,0.0174,0.0177,0.0179,0,0,0,0,0,0,0.0152,0.0165,0.0168,0.0178,0.0186,0.0192,0.0193,0.0194,0.0191,0.019,0.018,0.0178,0.0177,0.0168,0.0167,0.0167,0.0157,0.0157,0.0177,0.0179,0.0181,0.0194,0.0158,0,0,0,0,0,0.0152,0.0157,0.0171,0.0178,0.0183,0.0188,0.0191,0.0193,0.0194,0.0193,0.0188,0.0181,0.0177,0.0174,0.0168,0.0167,0.0165,0.0169,0.0171,0.0173,0.0182,0.0187,0.019,0.0151,0.0151,0.0151,0,0,0.0152,0.0158,0.0162,0.0176,0.0181,0.0196,0.0189,0.0197,0.0208,0.0191,0.0198,0.0188,0.0178,0.0179,0.0177,0.0172,0.0182,0.0173,0.0175,0.0183,0.0188,0.0192,0.0195,0.0151,0.0151,0.0151,0,0,0.0159,0.0161,0.0173,0.018,0.0191,0.0197,0.0201,0.0211,0.0212,0.0216,0.0208,0.0205,0.0196,0.0195,0.0192,0.0202,0.0193,0.0196,0.0217,0.0222,0.0226,0.0229,0.0226,0.0229,0.0197,0.0197,0.0197,0,0.016,0.018,0.0177,0.0191,0.0203,0.0201,0.0223,0.0223,0.0228,0.0237,0.0222,0.0223,0.0207,0.022,0.0218,0.0208,0.0206,0.0209,0.0226,0.0229,0.0232,0.0229,0.0231,0.0198,0.0198,0.0198,0.0198,0,0.0184,0.0197,0.0204,0.0225,0.0232,0.0249,0.0256,0.0263,0.0261,0.0266,0.0276,0.0256,0.0263,0.025,0.0233,0.0247,0.0237,0.0229,0.0222,0.0238,0.0233,0.0235,0.02,0.02,0.0199,0.0199,0,0,0.0201,0.022,0.0222,0.0244,0.0254,0.0271,0.0283,0.0307,0.0333,0.0318,0.0349,0.0323,0.0317,0.0313,0.0294,0.0287,0.0291,0.0264,0.0263,0.0266,0.0298,0.0274,0.0274,0.0286,0.0286,0.0287,0.0285,0,0.0228,0.0265,0.0262,0.0301,0.0331,0.0328,0.0347,0.0361,0.0368,0.0394,0.0372,0.0391,0.0341,0.0349,0.0332,0.031,0.0299,0.0292,0.0279,0.0279,0.0259,0.0277,0.0283,0.0281,0.0287,0.0288,0.0288,0,0.026,0.0286,0.0326,0.0363,0.0375,0.0393,0.0436,0.0452,0.0473,0.048,0.0486,0.0474,0.0466,0.0421,0.0386,0.0385,0.0343,0.0314,0.0313,0.0285,0.0259,0.0267,0.0285,0.0292,0.0292,0.0291,0.0291,0,0.0295,0.0332,0.0368,0.0379,0.0416,0.0436,0.0458,0.0484,0.0519,0.0544,0.0576,0.0556,0.0563,0.0509,0.0436,0.0418,0.0396,0.0368,0.0306,0.0304,0.0305,0.0301,0.0344,0.0344,0.0344,0.0344,0.0344,0,0.0334,0.0368,0.039,0.0415,0.0477,0.0479,0.0541,0.0563,0.0603,0.0661,0.0628,0.0668,0.0585,0.0558,0.0475,0.0402,0.0429,0.0318,0.0306,0.0312,0.031,0.0315,0.0312,0.0344,0.0344,0.0344,0.0344,0,0.0375,0.0383,0.0437,0.0477,0.0497,0.0544,0.0605,0.0653,0.0679,0.0755,0.077,0.0765,0.0726,0.0635,0.0556,0.0466,0.0392,0.0356,0.0362,0.035,0.0284,0.0282,0.0293,0.0292,0.0292,0.0291,0.0291,0,0.0403,0.0429,0.0485,0.0526,0.0549,0.0611,0.0659,0.0696,0.0755,0.0819,0.087,0.0851,0.0845,0.0713,0.0563,0.0428,0.0401,0.0333,0.0292,0.0293,0.0281,0.028,0.0279,0.0303,0.0303,0.0303,0.0302,0,0.0461,0.0469,0.0512,0.0591,0.0648,0.0718,0.0791,0.0851,0.0902,0.0954,0.1014,0.1009,0.0885,0.0746,0.0553,0.0455,0.0353,0.0322,0.0344,0.0309,0.0301,0.0289,0.0289,0.03,0.03,0.0301,0.0301,0.0301,0.0501,0.0537,0.0579,0.066,0.0734,0.0824,0.0894,0.0959,0.1046,0.1118,0.1107,0.1069,0.0923,0.0657,0.0512,0.034,0.0343,0.0267,0.0269,0.0271,0.0266,0.0257,0.0247,0.0246,0.0246,0.0246,0.0246,0,0.054,0.0573,0.0648,0.0741,0.0829,0.0854,0.0983,0.1032,0.1128,0.1145,0.1166,0.0983,0.0842,0.0665,0.0415,0.0274,0.0264,0.0221,0.0243,0.0246,0.0249,0.0243,0.0218,0.0217,0.0217,0.0216,0,0,0.0561,0.0619,0.0652,0.0798,0.087,0.0994,0.107,0.1114,0.1146,0.1139,0.1089,0.1054,0.085,0.066,0.0488,0.035,0.0324,0.0316,0.0354,0.0404,0.0408,0.0289,0.0286,0,0,0,0,0]}],[{"header":{"parameterUnit":"m.s-1","parameterCategory":2,"la1":30.2991,"la2":30.254,"lo1":-89.0895,"lo2":-89.0444,"dy":0.0017,"dx":0.0017,"nx":28,"ny":28,"refTime":"2026-02-10T09:00:00:Z","depth":"4","parameterNumber":2,"parameterNumberName":"U-component_of_CURRENTS"},"data":[0,0,0,0,0,0,0,0,0,0,0,0,0,0,0,0,0,0,0,0,0,0,0,0,0,0,0,0,0,0,0,0,0,0,0,0,0,0,0,0,0,0,0,0,0,0,0,0,0,0,0,0,0,0,0,0,0,0,0.0621,0.0622,0,0.066,0.066,0.066,0.0688,0.0688,0.0688,0.0689,0.0698,0.0698,0.0697,0,0,0,0,0,0,0,0,0,0,0,0,0,0.0568,0.0569,0.0621,0.0622,0.0622,0.0659,0.066,0.066,0.0688,0.0688,0.0688,0.0689,0.0698,0.0698,0.0697,0,0,0,0,0,0,0,0,0,0,0,0,0,0.0596,0.0569,0.0621,0.0641,0.0643,0.0659,0.066,0.066,0.0688,0.0688,0.0689,0.0689,0.0698,0.0698,0.0697,0.0687,0,0,0.0697,0.0697,0,0,0,0,0,0,0,0,0.0594,0.0598,0.0638,0.064,0.0642,0.067,0.0645,0.0668,0.0687,0.067,0.0689,0.0689,0.0686,0.0687,0.0692,0.0688,0.0688,0.0697,0.0697,0.0697,0.0697,0,0,0,0,0,0,0,0.0592,0.0596,0.0635,0.0638,0.0641,0.0647,0.0652,0.0649,0.0673,0.0671,0.0674,0.0679,0.0687,0.0692,0.0692,0.0688,0.0697,0.0697,0.0697,0.0697,0.074,0.0741,0,0,0,0,0,0,0.059,0.0595,0.0634,0.0637,0.062,0.0648,0.0653,0.066,0.0674,0.0677,0.0679,0.0681,0.0692,0.0692,0.0693,0.0731,0.0697,0.0697,0.0697,0.0739,0.0741,0.0742,0,0,0,0,0,0,0.0588,0.0593,0.0633,0.0617,0.0623,0.0648,0.0656,0.066,0.0683,0.068,0.0683,0.0699,0.0692,0.0693,0.0711,0.0729,0.0697,0.0697,0.0738,0.074,0.0741,0.0775,0,0,0,0,0,0,0.0587,0.0592,0.0603,0.0617,0.0624,0.0653,0.0656,0.0661,0.0685,0.0688,0.0698,0.0698,0.0693,0.0711,0.071,0.0729,0.0697,0.0736,0.0739,0.0741,0.0772,0.0778,0.0782,0,0,0,0,0,0.0585,0.0596,0.0603,0.0608,0.0635,0.0654,0.0658,0.0676,0.0686,0.0698,0.0709,0.0699,0.0725,0.0712,0.0711,0.0729,0.0735,0.0738,0.074,0.077,0.0777,0.0782,0,0,0,0,0,0,0.0576,0.06,0.0608,0.0626,0.0644,0.0659,0.0676,0.0686,0.0705,0.0711,0.0709,0.0711,0.0735,0.0729,0.0714,0.0751,0.073,0.0733,0.0753,0.0759,0.0764,0.0755,0.0697,0,0,0,0,0,0.0579,0.0597,0.0616,0.0632,0.0644,0.0663,0.0676,0.0687,0.0702,0.0712,0.0721,0.0732,0.0743,0.0749,0.0756,0.077,0.0774,0.0784,0.0789,0.0794,0.0788,0.0821,0.0828,0.0751,0.0751,0.0751,0,0,0.0577,0.0596,0.0604,0.0632,0.065,0.0665,0.0673,0.0697,0.071,0.0708,0.0738,0.075,0.0752,0.0774,0.0784,0.0772,0.082,0.0797,0.08,0.0792,0.0825,0.0832,0.0839,0.0753,0.0752,0.0752,0,0,0.0581,0.0605,0.062,0.0638,0.0669,0.0678,0.0689,0.0715,0.0732,0.0756,0.0763,0.0786,0.0802,0.0809,0.0812,0.0848,0.0847,0.0858,0.0872,0.0905,0.0912,0.0917,0.0938,0.0945,0.0858,0.0858,0.0859,0,0.058,0.0599,0.0626,0.0647,0.066,0.0686,0.0698,0.0719,0.0747,0.0763,0.0771,0.0812,0.0816,0.0838,0.0855,0.0857,0.0876,0.0847,0.0911,0.0917,0.0922,0.0942,0.0949,0.086,0.086,0.086,0.086,0,0.0587,0.061,0.0625,0.0656,0.0674,0.0692,0.0719,0.0746,0.077,0.0788,0.0829,0.0843,0.0866,0.0878,0.0876,0.0916,0.0918,0.0916,0.0893,0.0932,0.095,0.0958,0.0863,0.0862,0.0862,0.0861,0,0,0.0564,0.0617,0.0624,0.0639,0.068,0.0692,0.0725,0.0755,0.0781,0.0818,0.0851,0.088,0.0899,0.0904,0.0914,0.0941,0.0996,0.0947,0.0948,0.0962,0.1071,0.0976,0.0974,0.1013,0.1015,0.1016,0.1071,0,0.0561,0.059,0.062,0.0646,0.066,0.0698,0.0724,0.0758,0.0795,0.0838,0.0868,0.0906,0.0906,0.0928,0.0955,0.0989,0.1016,0.0981,0.1036,0.1037,0.0943,0.0979,0.102,0.1077,0.1078,0.1079,0.108,0,0.0552,0.0575,0.0596,0.064,0.0652,0.0674,0.0721,0.0751,0.0815,0.0848,0.0894,0.0923,0.0971,0.0969,0.1037,0.1021,0.1047,0.1068,0.1071,0.097,0.0954,0.103,0.1093,0.1092,0.1091,0.109,0.1089,0,0.0508,0.0557,0.057,0.0586,0.064,0.0664,0.0698,0.0757,0.0794,0.0866,0.0904,0.0956,0.1,0.104,0.1082,0.1074,0.1155,0.1147,0.1082,0.1076,0.113,0.1124,0.1194,0.1194,0.1194,0.1194,0.1193,0,0.0484,0.05,0.0557,0.0567,0.0594,0.0644,0.0685,0.0732,0.0807,0.0851,0.0913,0.0949,0.1026,0.1077,0.1101,0.1109,0.1172,0.1084,0.1084,0.1144,0.1139,0.1136,0.1128,0.1196,0.1195,0.1195,0.1194,0,0.0436,0.0472,0.0496,0.0555,0.0576,0.06,0.0682,0.0713,0.0793,0.0856,0.0885,0.0974,0.1034,0.109,0.1161,0.1127,0.1147,0.1134,0.1195,0.1198,0.1042,0.1036,0.1063,0.106,0.1057,0.1055,0.1054,0,0.0415,0.0422,0.048,0.0496,0.0529,0.0576,0.0607,0.0696,0.0735,0.0854,0.0877,0.0969,0.1015,0.1042,0.1098,0.1129,0.1117,0.111,0.1066,0.1031,0.1029,0.1027,0.1024,0.105,0.1049,0.1048,0.1048,0,0.0378,0.0403,0.0426,0.0453,0.0488,0.052,0.0578,0.0602,0.0705,0.0788,0.0849,0.0886,0.0949,0.0992,0.1027,0.1044,0.1101,0.1084,0.1089,0.1048,0.1016,0.1015,0.1016,0.1039,0.1041,0.1041,0.1042,0,0.0359,0.0361,0.0389,0.0411,0.0443,0.0456,0.0493,0.0546,0.0601,0.074,0.0754,0.0853,0.094,0.0949,0.0977,0.0987,0.0969,0.0924,0.0936,0.0946,0.088,0.082,0.0783,0,0,0,0,0,0.0339,0.0334,0.0345,0.0361,0.0385,0.0403,0.0468,0.0511,0.0611,0.0632,0.0698,0.0751,0.0802,0.0848,0.0837,0.0913,0.0963,0.0891,0.0915,0.0992,0.1002,0.0932,0,0,0,0,0,0,0.0324,0.0334,0.0328,0.0312,0.0309,0.0331,0.0368,0.0434,0.0454,0.0563,0.0602,0.0681,0.0748,0.0805,0.0816,0.0829,0.082,0.0954,0.0951,0.0986,0.0995,0.1003,0.0935,0,0,0,0,0]},{"header":{"parameterUnit":"m.s-1","parameterCategory":2,"la1":30.2991,"la2":30.254,"lo1":-89.0895,"lo2":-89.0444,"dy":0.0017,"dx":0.0017,"nx":28,"ny":28,"refTime":"2026-02-10T09:00:00:Z","depth":"4","parameterNumber":3,"parameterNumberName":"V-component_of_CURRENTS"},"data":[0,0,0,0,0,0,0,0,0,0,0,0,0,0,0,0,0,0,0,0,0,0,0,0,0,0,0,0,0,0,0,0,0,0,0,0,0,0,0,0,0,0,0,0,0,0,0,0,0,0,0,0,0,0,0,0,0,0,0.0146,0.0146,0,0.0148,0.0148,0.0148,0.0155,0.0155,0.0156,0.0156,0.0154,0.0154,0.0154,0,0,0,0,0,0,0,0,0,0,0,0,0,0.0129,0.0129,0.0146,0.0146,0.0146,0.0148,0.0148,0.0148,0.0155,0.0155,0.0156,0.0156,0.0154,0.0154,0.0153,0,0,0,0,0,0,0,0,0,0,0,0,0,0.0134,0.0129,0.0146,0.015,0.015,0.0148,0.0148,0.0148,0.0155,0.0155,0.0156,0.0156,0.0154,0.0154,0.0153,0.0147,0,0,0.0153,0.0152,0,0,0,0,0,0,0,0,0.0134,0.0135,0.0149,0.015,0.015,0.0152,0.0142,0.0148,0.0155,0.0153,0.0156,0.0156,0.0153,0.0153,0.0152,0.0147,0.0147,0.0153,0.0152,0.0152,0.0152,0,0,0,0,0,0,0,0.0134,0.0135,0.0147,0.0149,0.015,0.0145,0.0146,0.0143,0.0151,0.0153,0.0154,0.0154,0.0153,0.0153,0.0152,0.0147,0.0153,0.0152,0.0152,0.0152,0.0148,0.0148,0,0,0,0,0,0,0.0134,0.0134,0.0147,0.0147,0.0142,0.0145,0.0147,0.0151,0.0152,0.0152,0.0154,0.0155,0.0153,0.0153,0.0152,0.0162,0.0152,0.0152,0.0152,0.0148,0.0148,0.0148,0,0,0,0,0,0,0.0134,0.0136,0.0147,0.014,0.0142,0.0145,0.015,0.0151,0.0154,0.0152,0.0152,0.0157,0.0153,0.0153,0.0153,0.0162,0.0152,0.0152,0.0148,0.0148,0.0148,0.0171,0,0,0,0,0,0,0.0134,0.0135,0.0138,0.0141,0.0142,0.0148,0.015,0.0151,0.0154,0.0154,0.0154,0.0154,0.0153,0.0153,0.0152,0.0161,0.0151,0.0148,0.0148,0.0148,0.017,0.0172,0.0173,0,0,0,0,0,0.0133,0.0137,0.0138,0.0139,0.0146,0.0149,0.0149,0.0152,0.0153,0.0155,0.0156,0.0155,0.0154,0.0153,0.0152,0.0161,0.0148,0.0148,0.0148,0.0169,0.0171,0.0173,0,0,0,0,0,0,0.0131,0.0138,0.0139,0.0145,0.0147,0.015,0.0151,0.0153,0.0154,0.0156,0.0154,0.0154,0.0158,0.0153,0.0152,0.0159,0.0151,0.0151,0.0167,0.0169,0.0171,0.0182,0.0151,0,0,0,0,0,0.0131,0.0136,0.014,0.0144,0.0146,0.0149,0.015,0.0153,0.0154,0.0156,0.0156,0.0156,0.0157,0.0158,0.0157,0.0159,0.0149,0.0164,0.0165,0.0167,0.0175,0.0164,0.0166,0.0149,0.0149,0.0149,0,0,0.0133,0.0135,0.0139,0.0144,0.0146,0.0157,0.015,0.0154,0.0165,0.0154,0.0166,0.0161,0.0158,0.0163,0.0165,0.0161,0.0163,0.0167,0.0168,0.0175,0.0164,0.0166,0.0167,0.0149,0.0149,0.0149,0,0,0.0141,0.014,0.015,0.0152,0.0156,0.0159,0.0162,0.0166,0.0169,0.0175,0.0173,0.0174,0.0173,0.0177,0.0177,0.0185,0.0171,0.0182,0.0202,0.0191,0.0193,0.0194,0.0174,0.0173,0.0184,0.0184,0.0184,0,0.0144,0.0158,0.0152,0.0161,0.017,0.0164,0.0181,0.0181,0.0185,0.0192,0.0182,0.0188,0.0182,0.0196,0.0198,0.0191,0.0177,0.0196,0.0194,0.0195,0.0196,0.0175,0.0174,0.0185,0.0185,0.0185,0.0185,0,0.0164,0.0173,0.0178,0.0193,0.0197,0.0208,0.0211,0.0216,0.0217,0.022,0.0228,0.0217,0.0223,0.0218,0.0211,0.0218,0.0203,0.0196,0.0191,0.0199,0.0176,0.0174,0.0187,0.0186,0.0186,0.0186,0,0,0.0182,0.0193,0.0196,0.021,0.0217,0.0227,0.024,0.0256,0.0272,0.0264,0.0282,0.0275,0.0267,0.0267,0.0255,0.0244,0.0231,0.0223,0.0222,0.0206,0.0198,0.0182,0.0178,0.0222,0.0222,0.0222,0.0176,0,0.0205,0.0231,0.023,0.0261,0.0279,0.0277,0.0292,0.0301,0.0304,0.0315,0.0301,0.0311,0.0286,0.0288,0.0273,0.0246,0.0229,0.0243,0.019,0.0189,0.0176,0.0177,0.0222,0.0175,0.0175,0.0174,0.0174,0,0.0233,0.0247,0.028,0.0305,0.0313,0.0331,0.0359,0.0371,0.0377,0.0377,0.0377,0.0361,0.0352,0.0324,0.0279,0.0288,0.0246,0.0217,0.0214,0.0194,0.017,0.0167,0.0171,0.0171,0.0172,0.0172,0.0172,0,0.0259,0.0286,0.0315,0.0324,0.0346,0.0366,0.0383,0.0396,0.0415,0.042,0.0429,0.0407,0.0402,0.0351,0.0286,0.0283,0.0226,0.0215,0.0159,0.0156,0.0175,0.0174,0.0179,0.0179,0.0179,0.0179,0.0179,0,0.0286,0.0311,0.0333,0.0349,0.0392,0.0398,0.0441,0.045,0.0469,0.0495,0.0466,0.0472,0.0408,0.0365,0.0299,0.0224,0.0235,0.0164,0.0147,0.0183,0.0184,0.0173,0.0173,0.0178,0.0178,0.0178,0.0179,0,0.0307,0.0318,0.0356,0.0389,0.0404,0.0437,0.0484,0.0513,0.0522,0.0552,0.0556,0.0527,0.0469,0.0392,0.0308,0.0247,0.0173,0.0141,0.0181,0.0167,0.0105,0.0106,0.0079,0.0078,0.0077,0.0076,0.0076,0,0.0318,0.0338,0.0386,0.0412,0.0431,0.0478,0.0513,0.054,0.0569,0.0583,0.0597,0.0555,0.0521,0.0392,0.0305,0.0176,0.0154,0.011,0.0111,0.011,0.0096,0.0099,0.0102,0.0075,0.0074,0.0074,0.0074,0,0.0337,0.0355,0.0382,0.0437,0.0482,0.0533,0.0581,0.0605,0.0631,0.0642,0.063,0.0565,0.0497,0.0393,0.0292,0.0199,0.0138,0.0102,0.0103,0.0103,0.0105,0.0093,0.0096,0.0072,0.0072,0.0072,0.0072,0,0.035,0.0371,0.0407,0.0458,0.0516,0.0569,0.0595,0.0625,0.0652,0.0661,0.0655,0.0582,0.0543,0.0404,0.0312,0.0219,0.0192,0.0155,0.0153,0.0155,0.0187,0.0201,0.0186,0,0,0,0,0,0.0358,0.0379,0.0424,0.048,0.0542,0.0578,0.0631,0.065,0.0674,0.0671,0.0664,0.0598,0.0466,0.0412,0.0316,0.0289,0.0171,0.0172,0.0126,0.0057,0.006,0.0084,0,0,0,0,0,0,0.0359,0.0397,0.0418,0.0493,0.0537,0.0607,0.0643,0.0661,0.0655,0.0661,0.0595,0.0566,0.044,0.0523,0.0314,0.0286,0.024,0.0115,0.0112,0.0056,0.0058,0.0061,0.0086,0,0,0,0,0]}]]